CW0136 Weather Reports


time (UTC)temp
F
wind
direction
speed
knots
gust
knots
rain 1hr
in
rain 24hr
in
rain mn
in
humidity
%
barometer
mb
20260506113610 56 273 0.0 1.7 0.00 0.01 0.00 79 1019.2
20260506112610 56 273 0.9 2.6 0.00 0.01 0.00 79 1019.2
20260506111610 56 273 0.9 2.6 0.00 0.01 0.00 79 1019.1
20260506110612 56 273 0.0 2.6 0.00 0.01 0.00 79 1019.1
20260506105610 56 273 0.0 2.6 0.00 0.01 0.00 79 1019.0
20260506104610 56 273 0.9 2.6 0.00 0.01 0.00 79 1019.0
20260506103610 56 273 0.9 2.6 0.00 0.01 0.00 79 1018.7
20260506102610 56 273 0.0 2.6 0.00 0.01 0.00 79 1018.7
20260506101610 56 273 0.0 2.6 0.00 0.01 0.00 79 1018.6
20260506100611 56 273 0.0 2.6 0.00 0.01 0.00 79 1018.6
20260506095611 56 273 0.9 2.6 0.00 0.01 0.00 80 1018.6
20260506094610 56 273 1.7 5.2 0.00 0.01 0.00 80 1018.5
20260506092610 56 277 1.7 4.3 0.00 0.01 0.00 81 1018.5
20260506090610 56 273 1.7 4.3 0.00 0.01 0.00 82 1018.6
20260506085610 56 273 2.6 4.3 0.00 0.01 0.00 82 1018.6
20260506084610 55 273 0.0 0.0 0.00 0.01 0.00 81 1018.6
20260506083611 55 273 0.0 0.0 0.00 0.01 0.00 81 1018.6
20260506082610 55 273 0.0 0.0 0.00 0.01 0.00 81 1018.8
20260506081610 55 273 0.0 0.0 0.00 0.01 0.00 80 1018.7
20260506071610 56 273 0.0 1.7 0.00 0.01 0.00 78 1018.2
20260506070610 56 273 0.0 2.6 0.00 0.01 0.00 78 1018.1
20260506061610 57 273 2.6 5.2 0.00 0.01 0.01 77 1017.6
20260506050610 59 263 1.7 5.2 0.00 0.01 0.01 74 1017.0
20260506044609 59 254 2.6 4.3 0.00 0.01 0.01 73 1016.7
20260506042610 60 253 0.9 2.6 0.00 0.01 0.01 72 1016.6
20260506041610 60 253 1.7 2.6 0.00 0.01 0.01 71 1016.5
20260506040609 60 253 0.0 2.6 0.00 0.01 0.01 70 1016.4
20260506035610 60 253 0.9 2.6 0.00 0.01 0.01 70 1016.1
20260506034610 61 253 0.0 1.7 0.00 0.01 0.01 70 1016.0
20260506032610 62 253 0.0 2.6 0.00 0.01 0.01 69 1015.9
20260506031611 62 253 0.0 2.6 0.00 0.01 0.01 69 1015.9
20260506025612 62 253 0.0 2.6 0.00 0.01 0.01 68 1015.5
20260506024610 63 253 0.9 2.6 0.00 0.01 0.01 68 1015.5
20260506022611 63 253 0.0 1.7 0.00 0.01 0.01 67 1015.3
20260506021611 63 253 0.0 2.6 0.00 0.01 0.01 66 1015.2
20260506015611 64 253 0.0 2.6 0.00 0.01 0.01 65 1015.1
20260506014610 64 253 0.0 2.6 0.00 0.01 0.01 65 1015.1
20260506013611 64 253 0.0 2.6 0.00 0.01 0.01 64 1015.1
20260506012610 64 253 1.7 2.6 0.00 0.01 0.01 63 1015.1
20260506011611 65 253 0.9 2.6 0.00 0.01 0.01 63 1015.1
20260506010611 65 253 0.9 4.3 0.00 0.01 0.01 63 1015.0
20260506005610 65 253 0.9 2.6 0.00 0.01 0.01 64 1015.0
20260506004611 64 253 0.0 2.6 0.00 0.01 0.01 66 1015.1
20260506003611 64 253 1.7 4.3 0.00 0.01 0.01 66 1015.0
20260506002610 63 254 0.9 5.2 0.00 0.01 0.01 66 1015.0
20260506001611 63 258 0.9 2.6 0.00 0.01 0.01 67 1015.0
20260505235610 63 258 0.0 4.3 0.00 0.01 0.01 67 1014.9
20260505234610 63 257 0.9 4.3 0.00 0.01 0.01 67 1014.9
20260505233611 63 257 1.7 2.6 0.00 0.01 0.01 67 1015.0
20260505232611 63 257 1.7 4.3 0.00 0.01 0.01 67 1015.0
20260505230612 63 260 0.9 2.6 0.00 0.01 0.01 69 1014.9
20260505225610 63 260 1.7 2.6 0.00 0.01 0.01 69 1014.9
20260505224610 62 260 0.0 1.7 0.00 0.01 0.01 70 1015.0
20260505223610 62 260 0.9 2.6 0.00 0.01 0.01 70 1015.2
20260505222611 62 260 1.7 2.6 0.00 0.01 0.01 71 1015.3
20260505221610 62 260 0.9 4.3 0.00 0.01 0.01 71 1015.4
20260505215610 62 259 1.7 2.6 0.00 0.01 0.01 73 1015.4
20260505214610 61 259 0.9 2.6 0.00 0.01 0.01 73 1015.4
20260505213610 61 259 0.9 4.3 0.00 0.01 0.01 74 1015.5
20260505212610 62 259 0.9 4.3 0.00 0.01 0.01 74 1015.5
20260505211611 61 259 0.9 5.2 0.00 0.01 0.01 76 1015.5
20260505210611 61 269 0.9 4.3 0.00 0.01 0.01 79 1015.4
20260505205610 60 269 0.9 4.3 0.00 0.01 0.01 81 1015.5
20260505204610 60 269 0.9 4.3 0.00 0.01 0.01 82 1015.7
20260505203610 59 269 0.9 2.6 0.01 0.01 0.01 83 1015.8
20260505202610 58 269 0.9 5.2 0.01 0.01 0.01 84 1015.8
20260505195610 58 265 2.6 5.2 0.01 0.01 0.01 85 1015.9
20260505194610 58 270 0.9 5.2 0.01 0.01 0.01 87 1015.9
20260505193610 57 275 2.6 5.2 0.00 0.00 0.00 88 1015.9
20260505191610 57 275 0.9 4.3 0.00 0.00 0.00 89 1016.0
20260505190610 57 275 1.7 2.6 0.00 0.00 0.00 90 1015.9
20260505184610 56 275 0.9 4.3 0.00 0.00 0.00 91 1015.7
20260505183610 56 275 0.9 6.1 0.00 0.00 0.00 91 1015.7
20260505182610 56 263 0.9 5.2 0.00 0.00 0.00 92 1015.6
20260505180610 55 297 0.9 4.3 0.00 0.00 0.00 92 1015.4
20260505175610 55 297 0.9 2.6 0.00 0.00 0.00 92 1015.4
20260505174609 55 297 0.9 4.3 0.00 0.00 0.00 92 1015.4
20260505173609 55 297 0.0 2.6 0.00 0.00 0.00 92 1015.5
20260505172609 55 297 0.0 4.3 0.00 0.00 0.00 92 1015.5
20260505171610 55 297 0.9 2.6 0.00 0.00 0.00 92 1015.4
20260505170610 55 297 0.9 2.6 0.00 0.00 0.00 92 1015.4
20260505165610 55 297 0.0 0.9 0.00 0.00 0.00 92 1015.4
20260505164611 55 297 0.9 2.6 0.00 0.00 0.00 93 1015.3
20260505163611 55 297 0.0 2.6 0.00 0.00 0.00 93 1015.2
20260505162610 55 302 0.0 0.9 0.00 0.00 0.00 93 1015.3
20260505161609 54 302 0.0 0.0 0.00 0.00 0.00 93 1015.3
20260505152611 54 329 0.0 1.7 0.00 0.00 0.00 93 1014.9
20260505151611 54 293 0.0 0.9 0.00 0.00 0.00 93 1014.9
20260505150611 54 293 0.0 0.0 0.00 0.00 0.00 93 1014.9
20260505140611 53 298 0.0 0.0 0.00 0.00 0.00 92 1014.5
20260505124610 53 298 0.0 0.0 0.00 0.00 0.00 92 1013.9
20260505121610 53 298 0.0 0.9 0.00 0.00 0.00 91 1014.1
20260505114610 53 298 0.0 0.9 0.00 0.00 0.00 91 1014.1